Ketchikan, AK

10:42 PM AKDT on September 20, 2018 (GMT -0800)
Ketchikan International

Weather History for PAKT - June, 2018

Change the Weather History Date:

Wednesday, June 20, 2018

  Actual Average Record
Temperature  
Mean Temperature 62 °F -  
Max Temperature 73 °F 62 °F 89 °F (1958)
Min Temperature 53 °F 47 °F 39 °F (1997)
Degree Days  
Heating Degree Days 3    
Growing Degree Days 12 (Base 50)    
Moisture  
Dew Point 52 °F    
Average Humidity 76    
Maximum Humidity 96    
Minimum Humidity 50    
Precipitation  
Precipitation 0.00 in - - ()
Sea Level Pressure  
Sea Level Pressure 29.95 in    
Wind  
Wind Speed 10 mph (SE)    
Max Wind Speed 17 mph    
Max Gust Speed -    
Visibility 7 miles    
Events Fog    
Averages and records for this station are not official NWS values.
T = Trace of Precipitation, MM = Missing Value Source: NWS Daily Summary

Daily Weather History Graph

Daily Weather History Graph

Search for Another Location

Airport or City:

Astronomy

Jun. 20, 2018 Rise Set
Actual Time 4:04 AM AKDT 9:32 PM AKDT
Civil Twilight 3:04 AM AKDT 10:32 PM AKDT
Nautical Twilight 1:20 AM AKDT 12:16 AM AKDT
Astronomical Twilight Sun does not set Sun does not set
Moon 1:03 PM AKDT (6/20) 1:17 AM AKDT (6/20)
Length of Visible Light 19h 27m
Length of Day
17h 27m
First Quarter, 54% of the Moon is Illuminated
Jun 20
First Quarter
Jun 27
Full
Jul 5
Last Quarter
Jul 12
New
Jul 19
First Quarter

Hourly Weather History & Observations

Time (AKDT) Temp. Dew Point Humidity Pressure Visibility Wind Dir Wind Speed Gust Speed Precip Events Conditions
12:53 AM 61.0 °F 52.0 °F 72% 29.96 in 10.0 mi SSE 6.9 mph - N/A   Clear
1:53 AM 61.0 °F 53.1 °F 75% 29.97 in 10.0 mi SSE 10.4 mph - N/A   Clear
2:53 AM 59.0 °F 53.1 °F 81% 29.97 in 10.0 mi SSE 10.4 mph - N/A   Clear
3:53 AM 57.9 °F 53.1 °F 84% 29.97 in 10.0 mi SSE 9.2 mph - N/A   Clear
4:53 AM 57.9 °F 53.1 °F 84% 29.96 in 10.0 mi ESE 8.1 mph - N/A   Clear
5:53 AM 60.1 °F 54.0 °F 80% 29.97 in 10.0 mi SE 9.2 mph - N/A   Clear
6:02 AM 61.0 °F 54.0 °F 78% 29.97 in 10.0 mi SE 10.4 mph - N/A   Clear
6:53 AM 62.6 °F 53.6 °F 72% 29.97 in 10.0 mi SE 13.8 mph - N/A   Clear
7:53 AM 62.6 °F 53.6 °F 72% 29.97 in 10.0 mi ESE 10.4 mph - N/A   Clear
8:53 AM 64.4 °F 53.6 °F 68% 29.96 in 10.0 mi SSE 8.1 mph - N/A   Clear
9:53 AM 66.2 °F 53.6 °F 64% 29.96 in 10.0 mi ESE 12.7 mph - N/A   Clear
10:53 AM 68.0 °F 54.0 °F 61% 29.96 in 10.0 mi ESE 12.7 mph - N/A   Clear
11:53 AM 69.8 °F 53.6 °F 56% 29.96 in 10.0 mi ESE 12.7 mph - N/A   Clear
12:53 PM 66.2 °F 53.6 °F 64% 29.97 in 10.0 mi SE 12.7 mph - N/A   Clear
1:53 PM 71.6 °F 53.6 °F 53% 29.96 in 10.0 mi ESE 16.1 mph - N/A   Clear
2:53 PM 71.6 °F 51.8 °F 50% 29.96 in 10.0 mi ESE 13.8 mph - N/A   Clear
3:53 PM 71.6 °F 53.6 °F 53% 29.95 in 10.0 mi ESE 17.3 mph - N/A   Clear
4:53 PM 71.6 °F 51.8 °F 50% 29.94 in 10.0 mi ESE 16.1 mph - N/A   Clear
5:53 PM 69.8 °F 51.8 °F 53% 29.94 in 10.0 mi ESE 15.0 mph - N/A   Clear
6:53 PM 68.0 °F 51.8 °F 56% 29.94 in 10.0 mi SE 15.0 mph - N/A   Clear
7:53 PM 60.8 °F 51.8 °F 72% 29.94 in 10.0 mi SSE 9.2 mph - N/A   Clear
8:53 PM 57.9 °F 53.1 °F 84% 29.94 in 10.0 mi SSE 10.4 mph - N/A   Clear
9:43 PM 54.0 °F 51.1 °F 90% 29.94 in 2.5 mi SSE 10.4 mph - N/A   Partly Cloudy
9:49 PM 53.6 °F 51.8 °F 94% 29.94 in 1.0 mi SE 9.2 mph - N/A   Mist
9:50 PM 53.6 °F 51.8 °F 94% 29.94 in 1.0 mi SSE 9.2 mph - N/A   Mist
9:53 PM 53.1 °F 51.1 °F 93% 29.94 in 1.0 mi SSE 9.2 mph - N/A   Mist
9:59 PM 53.1 °F 51.1 °F 93% 29.94 in 2.0 mi SSE 10.4 mph - N/A   Partly Cloudy
10:07 PM 53.1 °F 51.1 °F 93% 29.94 in 6.0 mi SE 9.2 mph - N/A   Partly Cloudy
10:32 PM 53.1 °F 51.1 °F 93% 29.94 in 2.5 mi SE 9.2 mph - N/A   Mostly Cloudy
10:36 PM 53.1 °F 51.1 °F 93% 29.94 in 0.8 mi SE 9.2 mph - N/A   Mist
10:53 PM 53.1 °F 51.1 °F 93% 29.95 in 0.5 mi SE 9.2 mph - N/A Fog Fog
11:25 PM 54.0 °F 52.0 °F 93% 29.95 in 1.2 mi SE 10.4 mph - N/A   Overcast
11:37 PM 54.0 °F 52.0 °F 93% 29.95 in 0.5 mi SE 10.4 mph - N/A Fog Fog
11:53 PM 53.1 °F 52.0 °F 96% 29.95 in 0.5 mi SE 9.2 mph - N/A Fog Fog